Other Public Products
Issued by NWS Grand Forks, ND

Home | Current Version | Previous Version | Graphics & Text | Print | Product List | Glossary On
Versions: 1 2 3 4 5 6 7 8 9 10 11 12 13 14 15 16 17 18 19 20 21 22 23 24 25 26 27 28 29 30 31 32 33 34 35 36 37 38 39 40 41 42 43 44 45 46 47 48 49 50
000
FPUS83 KFGF 300931
OPUFGF
PRAIRIE TO PINES WEATHER ROUNDUP
NATIONAL WEATHER SERVICE EASTERN NORTH DAKOTA/GRAND FORKS ND
400 AM CDT MON MAY 30 2016

 **SATELLITE DATA USED TO AUGMENT SKY COVER AT AUTOMATED STATIONS**
 *****  WEATHER ACROSS EASTERN NORTH DAKOTA  *****

CITY           SKY/WX    TMP DP  RH WIND       PRES   REMARKS
GRAND FORKS    CLEAR     51  45  79 SW5       29.91S
GRAND FORKS AF CLEAR     52  46  80 SW5       29.91S
GRAND CITY NWS   N/A     50 N/A N/A MISG        N/A
BUXTON           N/A     43  49 100 S3          N/A
DEVILS LAKE    CLOUDY    57  45  64 S3        29.92F
FARGO          PTCLDY    58  47  66 S6        29.93S
WAHPETON ARPT  SUNNY     52  45  76 CALM      29.96R
$$

 *****  WEATHER ACROSS CENTRAL AND WESTERN NORTH DAKOTA  *****

CITY           SKY/WX    TMP DP  RH WIND       PRES   REMARKS
JAMESTOWN      CLEAR     53  48  83 S3        29.93S
BISMARCK       CLEAR     53  51  93 E3        29.92F
MINOT          CLEAR     57  45  64 SW7       29.89F
MINOT AFB      CLEAR     49  45  84 S5        29.89F
GARRISON         N/A     49  45  86 CALM      29.91F
WILLISTON      PTCLDY    48  42  80 N5        29.90F
DICKINSON      CLEAR     49  45  86 S8        29.90F
HETTINGER      CLEAR     49  45  86 CALM      29.94F
$$

 *****  OTHER OBSERVATIONS NORTHEAST NORTH DAKOTA  *****

CITY           SKY/WX    TMP DP  RH WIND       PRES   REMARKS
WALHALLA       FAIR      46  45  93 CALM      29.90S
LANGDON        FAIR      48  46  93 S6        29.92F
CAVALIER       FAIR      50  50 100 SW3       29.90S
GRAFTON        FAIR      52  52 100 S3        29.92S
CANDO          FAIR      50  46  87 CALM      29.93F
FORT TOTTEN      N/A     56  40  56 SE2       29.95S
ROLLA          FAIR      50  41  71 SW9       29.92F
RUGBY          FAIR      55  45  67 S7        29.90F
 ***** THE ABOVE OBSERVATIONS ARE NON NWS ARE NOT QUALITY
        CONTROLLED AND MAY MIS-REPORT RAIN FOR SNOW...
$$

 *****  OTHER OBSERVATIONS SOUTHEAST NORTH DAKOTA *****

CITY           SKY/WX    TMP DP  RH WIND       PRES   REMARKS
COOPERSTOWN    NOT AVBL
VALLEY CITY    FAIR      50  50 100 CALM      29.95F
OAKES            N/A    N/A N/A N/A MISG        N/A
GWINNER        FAIR      55  52  88 SW8       29.95S
BUFFALO          N/A     60  42  52 S3          N/A
WYNDMERE         N/A     54  45  71 CALM        N/A
 ***** THE ABOVE OBSERVATIONS ARE NON NWS ARE NOT QUALITY
       CONTROLLED AND MAY MIS-REPORT RAIN FOR SNOW...
$$

  *****  WEATHER ACROSS NORTHERN MINNESOTA  *****

CITY           SKY/WX    TMP DP  RH WIND       PRES   REMARKS
FLAG ISLAND    NOT AVBL
WARROAD        CLEAR     48  45  87 CALM      29.92F
ROSEAU         CLEAR     50  45  81 CALM      29.92S
HALLOCK        CLEAR     52  48  87 S7        29.89F
THF RVR FALLS  CLEAR     54  46  76 S7        29.94S
HALSTAD        NOT AVBL
FOSSTON        CLEAR     50  48  93 S5        29.95S
BAUDETTE       FOG       46  45  96 CALM      29.92S VSB 3/4
WASKISH        CLEAR     50  50 100 CALM      29.93S
CROOKSTON      CLEAR     52  48  87 S6        29.93S
$$
  *****  WEATHER ACROSS CENTRAL AND WEST MINNESOTA  *****

CITY           SKY/WX    TMP DP  RH WIND       PRES   REMARKS
BEMIDJI        FOG       45  45  99 CALM      29.94F VSB 1/2
PARK RAPIDS    CLEAR     52  47  83 CALM      29.96S
WADENA         CLOUDY    50  48  93 CALM      29.97R
DETROIT LAKES  CLOUDY    55  52  88 S5        29.96F
MOORHEAD       CLEAR     57  48  72 S5        29.94F
FERGUS FALLS   CLEAR     59  48  67 SE5       29.93S
ELBOW LAKE     FAIR      58  52  81 SE6       29.97S
MORRIS MN      CLOUDY    52  46  82 S6        29.97R
STAPLES        MOCLDY    48  46  93 CALM      29.98R
WHEATON        CLEAR     57  48  72 S6        29.98R
$$
  *****  WEATHER ELSEWHERE ACROSS MINNESOTA  *****

CITY           SKY/WX    TMP DP  RH WIND       PRES   REMARKS
DULUTH         CLEAR     52  48  86 W9        29.95S
INTRNTL FALLS  CLEAR     49  48  97 W3        29.91S
ELY            CLEAR     50  48  93 SW3       29.92S
CLOQUET        CLEAR     54  48  82 W5        29.96R
BRAINERD       CLEAR     49  48  97 S5        29.97F
HIBBING        CLEAR     40  40 100 SW3       29.95S FOG
ALEXANDRIA     CLEAR     54  49  83 S3        29.99S
SAINT CLOUD    CLEAR     51  50  96 CALM      29.98S
MINNEAPOLIS    PTCLDY    61  57  87 S3        29.99S
$$

  *****  WEATHER ACROSS SOUTH DAKOTA  *****

CITY           SKY/WX    TMP DP  RH WIND       PRES   REMARKS
SIOUX FALLS    CLOUDY    63  55  75 S6        30.03R
BROOKINGS      CLOUDY    57  54  88 S10       30.02R
WATERTOWN      CLOUDY    58  51  78 S3        29.99S
HURON          CLOUDY    62  56  80 SW15      29.99R
SISSETON         N/A     53  46  77 S6        29.95S
ABERDEEN       CLEAR     53  49  86 S5        29.96S
MITCHELL       RAIN      64  58  80 S12       30.03R
PIERRE         PTCLDY    60  55  83 SE13G22   29.91F
MOBRIDGE       CLEAR     58  53  84 SE8       29.91S
RAPID CITY     CLEAR     51  49  92 VRB3      29.94S
$$

  *****  SOME WEATHER IN NEARBY STATES *****

CITY           SKY/WX    TMP DP  RH WIND       PRES   REMARKS
GLASGOW MT     MOCLDY    55  44  66 SE5       29.88R
GREAT FALLS MT PTCLDY    48  42  80 SW9       29.97S
CHEYENNE WY    CLEAR     48  39  71 W9        30.09F
SCOTTSBLUFF NE PTCLDY    55  50  83 E10       30.02S
OMAHA NE       MOCLDY    68  60  75 SE6       29.98F
DES MOINES IA  CLOUDY    67  58  72 S6        29.99F
DAVENPORT IA   CLOUDY    64  57  78 NW8       30.02R
CHICAGO IL     MOCLDY    66  58  75 W5        30.00S
EAU CLAIRE WI  CLEAR     56  55  97 W5        29.98S
LA CROSSE WI   CLEAR     61  58  90 CALM      29.99S
$$

  *****  SOME NATIONAL WEATHER *****

CITY           SKY/WX    TMP DP  RH WIND       PRES   REMARKS
LA GUARDIA NY  HVY RAIN  70  70 100 S7        29.98S FOG
RALEIGH NC     FOG       66  65  96 NE3       30.00S VSB 1/4
ATLANTA GA     PTCLDY    68  62  81 SW5       30.03S
NEW ORLEANS LA PTCLDY    74  71  91 SW3       30.00F
OKLAHOMA CITY  RAIN      65  63  93 S9        30.05R FOG
ALBUQUERQUE NM PTCLDY    62  31  31 E10       30.09R
SALT LAKE CITY CLOUDY    60  50  69 SE9       30.12R
LOS ANGELES CA PTCLDY    59  54  83 W8        30.00F
BOISE ID       CLEAR     58  40  51 W9        30.05R
SEATTLE WA     CLEAR     52  43  71 NE10      30.27S
$$

*** WEATHER ACROSS MANITOBA...SASKATCHEWAN AND ONTARIO ***
                ***ONTARIO***

CITY           SKY/WX    TMP DP  RH WIND       PRES   REMARKS
GERALDTON      MOCLDY    50  50 100 W7        29.75S FOG
THUNDER BAY    MOCLDY    57  54  88 W10       29.83R
SIOUX LOOKOUT  DRIZZLE   52  50  93 NW8       29.85R
TORONTO        PTCLDY    64  59  82 W7        29.89S
BIG TROUT LK   LGT RAIN  37  32  81 N6        29.91R
PICKLE LAKE    NOT AVBL
DRYDEN         CLOUDY    52  52 100 W9        29.87S
KENORA         PTCLDY    50  50 100 NW7       29.91S
$$
                *** MANITOBA***

CITY           SKY/WX    TMP DP  RH WIND       PRES   REMARKS
BRANDON        PTCLDY    45  45 100 CALM      29.89S
DAUPHIN        MOCLDY    46  45  93 W7        29.89R
ISLAND LAKE    LGT RAIN  45  45 100 NW2       29.96
PILOT MOUND      N/A     50  45  81 S3          N/A
THE PAS        CLOUDY    50  48  93 N5        29.92S FOG
THOMPSON       CLOUDY    45  43  93 NE6       30.01R
WINNIPEG       CLEAR     52  50  93 E6        29.91S
LYNN LAKE      LGT RAIN  43  41  93 E10       30.03R FOG
CHURCHILL      CLOUDY    25  25 100 NE12      30.22R FOG     WCI  14
GILLAM         CLOUDY    30  28  93 NE10G20   30.09R WCI  21
$$
                ***SASKATCHEWAN***

CITY           SKY/WX    TMP DP  RH WIND       PRES   REMARKS
ESTEVAN        NOT AVBL
KINDERSLEY     MOCLDY    52  46  82 E15       29.83S
LLOYDMINSTER   LGT RAIN  48  48 100 E3        29.94F
PRINCE ALBERT  PTCLDY    41  41 100 NE2       29.94S
REGINA         CLEAR     46  43  87 E6        29.87S
YORKTON        FOG       46  45  93 N7        29.89R VSB 5/8
N. BATTLEFORD  CLOUDY    48  48 100 NE5       29.95R   C1F1C2F2C3F3C4F4C5F5C6F6C7F7C8F8C9F9CaFaCbFbCcFcCdFdCe!


USA.gov is the U.S. government's official web portal to all federal, state and local government web resources and services.